This is the latest recevied weather packets stored in our database for station/object W0SS-13. If no packets are shown the sender has not sent any weather packets the latest 10 day(s).
| Time | Temp. | Humidity | Pressure | Rain* | Wind** | Luminosity | Snow |
|---|---|---|---|---|---|---|---|
| 1777594339 | 15.56° C | 55% | 1017.2 hPa | 0 mm | - | 52 W/m² | - |
| 1777594035 | 16.11° C | 54% | 1017 hPa | 0 mm | - | 61 W/m² | - |
| 1777593730 | 16.11° C | 54% | 1017.1 hPa | 0 mm | - | 77 W/m² | - |
| 1777593426 | 16.11° C | 54% | 1016.9 hPa | 0 mm | - | 84 W/m² | - |
| 1777593125 | 16.11° C | 54% | 1017.1 hPa | 0 mm | - | 84 W/m² | - |
| 1777592824 | 16.67° C | 53% | 1016.9 hPa | 0 mm | - | 87 W/m² | - |
| 1777592521 | 16.67° C | 54% | 1016.8 hPa | 0 mm | - | 105 W/m² | - |
| 1777592216 | 16.67° C | 55% | 1016.9 hPa | 0 mm | - | 118 W/m² | - |
| 1777591913 | 16.67° C | 53% | 1016.8 hPa | 0 mm | - | 155 W/m² | - |
| 1777591610 | 16.67° C | 53% | 1016.7 hPa | 0 mm | - | 150 W/m² | - |
| 1777591306 | 17.22° C | 55% | 1016.9 hPa | 0 mm | - | 138 W/m² | - |
| 1777591001 | 17.78° C | 50% | 1016.9 hPa | 0 mm | - | 133 W/m² | - |
| 1777590696 | 17.78° C | 49% | 1016.6 hPa | 0 mm | - | 139 W/m² | - |
| 1777590393 | 17.78° C | 51% | 1016.8 hPa | 0 mm | - | 137 W/m² | - |
| 1777590091 | 17.78° C | 50% | 1016.5 hPa | 0 mm | - | 133 W/m² | - |
| 1777589787 | 17.78° C | 50% | 1016.4 hPa | 0 mm | - | 152 W/m² | - |
| 1777589486 | 18.33° C | 49% | 1016.5 hPa | 0 mm | - | 247 W/m² | - |
| 1777589181 | 17.78° C | 51% | 1016.4 hPa | 0 mm | - | 241 W/m² | - |
| 1777588877 | 17.78° C | 52% | 1016.5 hPa | 0 mm | - | 161 W/m² | - |
| 1777588574 | 17.78° C | 54% | 1016.5 hPa | 0 mm | - | 134 W/m² | - |
| 1777588269 | 17.78° C | 55% | 1016.5 hPa | 0 mm | - | 163 W/m² | - |
| 1777587964 | 17.78° C | 53% | 1016.4 hPa | 0 mm | - | 118 W/m² | - |
| 1777587660 | 18.33° C | 53% | 1016.4 hPa | 0 mm | - | 196 W/m² | - |
| 1777587360 | 18.33° C | 52% | 1016.5 hPa | 0 mm | - | 212 W/m² | - |
| 1777587056 | 18.33° C | 53% | 1016.4 hPa | 0 mm | - | 423 W/m² | - |
* Rain latest hour (hover to see other rain measurements)
** Current wind speed in m/s (hover to see current wind gust speed)